Simultaneous Nadir Overpasses (SNOs) Predictions

Prediction of SNOs between TERRA and METOP-C Satellite Orbit:

Table of predicted SNOs for the next 14.0 days since TLE Epoch: 7/11/2020
Index Date (TERRA) Time (TERRA) Lat,Lon (TERRA) SZA (TERRA ) Date (METOP-C) Time (METOP-C) Lat,Lon (METOP-C) SZA (METOP-C ) Distance(km) Time Diff (sec)
1 07/12/2020 20:04:08 -81.32, 106.71 117.68 07/12/2020 20:04:06 -81.31, 106.58 117.71 2.39 2
2 07/12/2020 20:53:35 81.31, -85.92 62.29 07/12/2020 20:54:46 81.32, -85.81 62.34 2.15 71
3 07/15/2020 14:48:59 81.31, 5.33 62.71 07/15/2020 14:47:48 81.31, 5.40 62.68 1.26 71
4 07/15/2020 15:38:26 -81.31, 172.93 117.29 07/15/2020 15:38:28 -81.31, 173.05 117.28 1.89 2
5 07/18/2020 10:23:18 81.30, 71.54 63.15 07/18/2020 10:22:11 81.30, 71.48 63.12 1.02 67
6 07/18/2020 11:12:44 -81.32,-120.44 116.79 07/18/2020 11:12:50 -81.31,-120.50 116.80 1.30 6
7 07/21/2020 05:57:36 81.31, 138.15 63.70 07/21/2020 05:56:31 81.31, 138.34 63.69 3.18 65
8 07/21/2020 06:47:03 -81.31, -54.18 116.29 07/21/2020 06:47:11 -81.31, -54.05 116.27 2.21 8
9 07/24/2020 01:31:57 81.30,-155.60 64.25 07/24/2020 01:30:54 81.31,-155.59 64.22 0.30 63



Historial Predications of SNOs between TERRA and METOP-C
